Regional Weather Roundup
Issued by NWS Mobile, AL

Home | Current Version | Previous Version | Text Only | Print | Product List | Glossary On
Versions: 1 2 3 4 5 6 7 8 9 10 11 12 13 14 15 16 17 18 19 20 21 22 23 24 25 26 27 28
000
ASUS44 KMOB 240712
RWRMOB
REGIONAL WEATHER ROUNDUP
NATIONAL WEATHER SERVICE MOBILE AL
200 AM CDT SAT JUN 24 2017

NOTE: "FAIR" INDICATES FEW OR NO CLOUDS BELOW 12,000 FEET WITH NO
      SIGNIFICANT WEATHER AND/OR OBSTRUCTIONS TO VISIBILITY.

  * THESE STATIONS ARE PART OF THE UNIVERSITY OF SOUTH ALABAMA
    MESONET AND ARE NOT UNDER NWS OR FAA QUALITY CONTROL.

ALZ061>064-240800-
COASTAL ALABAMA

CITY           SKY/WX    TMP DP  RH WIND       PRES   REMARKS
MOBILE REG APT LGT RAIN  79  77  94 SW7       29.99F FOG
BROOKLEY FIELD CLOUDY    81  79  94 S5        29.99F
USA CAMPUS*      N/A     77  75  94 CALM      29.97F
DOG RIVER*       N/A     79  77  94 S7        30.72


CITY           SKY/WX    TMP DP  RH WIND       PRES   REMARKS
GULF SHORES    MOCLDY    79  79 100 S7        29.99F

$$

ALZ051>060-240800-
INTERIOR SOUTHWEST AND SOUTH CENTRAL ALABAMA

CITY           SKY/WX    TMP DP  RH WIND       PRES   REMARKS
GREENVILLE     CLOUDY    76  73  91 SW7       29.96F
EVERGREEN      CLOUDY    78  75  90 S7        29.97F
ATMORE*        NOT AVBL
ANDALUSIA/OPP  CLOUDY    79  75  87 VRB3      29.99F
ANDALUSIA*       N/A     77  75  94 S3        29.99F
FLORALA APT    CLOUDY    77  74  90 SW8       30.01F
FLORALA*         N/A     75  75 100 CALM      30.67F

$$

FLZ001>006-240800-
WESTERN FLORIDA PANHANDLE

CITY           SKY/WX    TMP DP  RH WIND       PRES   REMARKS
PENSACOLA      MOCLDY    81  76  84 S7        29.98F
NAS PENSACOLA  PTCLDY    80  76  87 S10       29.98F
MILTON         CLOUDY    78  77  96 S6        29.99F
WHTNG S FIELD  MOCLDY    80  77  90 S5        29.98F


CITY           SKY/WX    TMP DP  RH WIND       PRES   REMARKS
JAY*             N/A     77  77 100 S7        29.99F
DUKE FIELD     CLEAR     76  75  96 S6        29.99F
CRESTVIEW      CLOUDY    76  74  93 S3        30.00F FOG
VALPARAISO     PTCLDY    80  76  87 S10       29.99F
DESTIN         PTCLDY    83  81  94 VRB5      29.99F HX  97

$$

MSZ076-079-240800-
INTERIOR SOUTHEAST MISSISSIPPI

CITY           SKY/WX    TMP DP  RH WIND       PRES   REMARKS
LEAKESVILLE*   NOT AVBL
AGRICOLA*        N/A     73  73 100 CALM      29.98

$$

MARINE OBSERVATIONS

STATION/POSITION TIME  TEMP    WIND        PRES    WAVE
                       AIR SEA DIR/SP/G            HT/PER
                 (UTC) (F)     (DEG/KT/KT) (MB)    (FT/S)
PASCAGOULA       0648   80     190/  7/ 10 1015.1F
PETIT BOIS ISLND 0648   80     200/ 15/ 17 1016.0F
GRAND BAY        0530   81     200/ 12     1017.0R
KATRINA CUT      0600   81     210/ 14     1015.6
CEDAR POINT      0630   81     220/ 14     1015.9F
E DAUPHIN ISLAND 0600   81     190/ 11/ 14 1015.3F
MIDDLE BAY LIGHT 0600   81     190/ 13     1015.9
USCG MOBILE BAY  0648   80 81  210/  3/  6 1015.8F
STATE DOCKS      0648   80 80              1015.0F
MEAHER PARK      0630   81     190/ 11     1015.2F
FORT MORGAN      0648   81     200/ 15/ 16   N/A
12 S ORANGE BCH  0550   80 81  200/ 10/ 10 1016.0R   3/ 6
PENSACOLA BAY    0648   81 83              1015.6F
64 S DAUPHIN ISL 0650   81 82  180/ 10/ 12 1016.0F   4/ 7
67 S FORT MORGAN 0630   79     190/ 12     1016.3S

$$

SELECTED LOCATIONS ACROSS THE REGION

CITY           SKY/WX    TMP DP  RH WIND       PRES   REMARKS
NEW ORLEANS    PTCLDY    80  78  94 S8        29.97F
GULFPORT       CLOUDY    76  74  93 N5        29.98S
PASCAGOULA AP  CLOUDY    80  77  90 SW5       29.98F
PASCAGOULA*    NOT AVBL
HATTIESBURG    CLOUDY    73  71  93 CALM      29.97S
LAUREL         CLOUDY    73  70  88 SW6       29.99R
MERIDIAN       LGT RAIN  75  74  96 SE10      29.93F
JACKSON        CLOUDY    73  71  93 SE10      29.89F
MONTGOMERY     CLEAR     75  70  84 S5        29.96F
TROY           LGT RAIN  73  73 100 S5        29.99F
ASHFORD*         N/A     77  75  94 S3        29.99F
DOTHAN         CLOUDY    76  76 100 SW9       30.03F
PANAMA CITY    CLEAR     77  75  93 SW3       29.99F

$$





USA.gov is the U.S. government's official web portal to all federal, state and local government web resources and services.